Tracking 23726 objects as of 25-Sep-2021
HD Live streaming from Space Station
objects crossing your sky now

ABS-1A (KOREASAT 2)

Track ABS-1A (KOREASAT 2) now!
ABS-1A (KOREASAT 2) is classified as:


NORAD ID: 23768
Int'l Code: 1996-003A
Perigee: 35,907.3 km
Apogee: 35,952.8 km
Inclination: 10.3 °
Period: 1,443.1 minutes
Semi major axis: 42301 km
RCS: 25.1188 m2 (large)
Launch date: January 14, 1996
Source: South Korea (SKOR)
Launch site: AIR FORCE EASTERN TEST RANGE (AFETR)

Korean peninsula; 15 Ku-band transponders.
aabbcc
Your satellite tracking list
Your tracking list is empty




NASA's NSSDC Master Catalog

Two Line Element Set (TLE):
1 23768U 96003A   21267.43313168  .00000053  00000-0  00000+0 0  9998
2 23768  10.2834  36.8737 0005373  84.7380 104.0016  0.99787528 93973
Source of the keplerian elements: AFSPC